Gainesville, GA

5:25 PM EST on November 21, 2019 (GMT -0500)
Gilmer Memorial

Weather History for KGVL - August, 2019

Change the Weather History Date:

Thursday, August 8, 2019

  Actual Average Record
Temperature  
Mean Temperature 81 °F 79 °F  
Max Temperature 90 °F 88 °F 99 °F (2007)
Min Temperature 72 °F 70 °F 57 °F (2004)
Cooling Degree Days 16 14  
Month to date cooling degree days 110 112  
Year to date cooling degree days 1183 1034  
Since 1 June cooling degree days 847 859  
Growing Degree Days 30 (Base 50)    
Moisture  
Dew Point 70 °F    
Average Humidity 72    
Maximum Humidity 93    
Minimum Humidity 50    
Precipitation  
Precipitation 0.00 in 0.17 in 2.01 in (2018)
Month to date precipitation 1.38 1.36  
Year to date precipitation 36.22 33.18  
Sea Level Pressure  
Sea Level Pressure 29.92 in    
Wind  
Wind Speed 8 mph (WNW)    
Max Wind Speed 14 mph    
Max Gust Speed 20 mph    
Visibility 10 miles    
Events      
T = Trace of Precipitation, MM = Missing Value Source: NWS Daily Summary

Daily Weather History Graph

Daily Weather History Graph

Search for Another Location

Airport or City:

Astronomy

Aug. 08, 2019 Rise Set
Actual Time 6:51 AM EDT 8:30 PM EDT
Civil Twilight 6:24 AM EDT 8:57 PM EDT
Nautical Twilight 5:51 AM EDT 9:29 PM EDT
Astronomical Twilight 5:17 AM EDT 10:03 PM EDT
Moon 3:05 PM EDT (8/8) 1:10 AM EDT (8/8)
Length of Visible Light 14h 33m
Length of Day
13h 39m
First Quarter, 60% of the Moon is Illuminated
Aug 8
First Quarter
Aug 15
Full
Aug 23
Last Quarter
Aug 30
New
Sep 5
First Quarter

Hourly Weather History & Observations

Time (EDT) Temp. Heat Index Dew Point Humidity Pressure Visibility Wind Dir Wind Speed Gust Speed Precip Events Conditions
12:53 AM 78.1 °F - 72.0 °F 81% 29.90 in 10.0 mi WNW 8.1 mph - N/A   Clear
1:53 AM 77.0 °F - 71.1 °F 82% 29.90 in 10.0 mi West 6.9 mph - N/A   Clear
2:53 AM 75.0 °F - 70.0 °F 84% 29.89 in 10.0 mi West 9.2 mph - N/A   Clear
3:53 AM 73.9 °F - 70.0 °F 87% 29.88 in 10.0 mi West 4.6 mph - N/A   Clear
4:53 AM 73.0 °F - 70.0 °F 90% 29.89 in 10.0 mi West 5.8 mph - N/A   Clear
5:53 AM 72.0 °F - 69.1 °F 91% 29.90 in 10.0 mi West 6.9 mph - N/A   Clear
6:53 AM 72.0 °F - 69.1 °F 91% 29.91 in 10.0 mi West 5.8 mph - N/A   Clear
7:53 AM 73.0 °F - 69.1 °F 87% 29.92 in 10.0 mi West 6.9 mph - N/A   Clear
8:53 AM 75.9 °F - 70.0 °F 82% 29.94 in 10.0 mi NW 12.7 mph - N/A   Clear
9:53 AM 80.1 °F 83.2 °F 70.0 °F 71% 29.94 in 10.0 mi WNW 11.5 mph - N/A   Clear
10:53 AM 82.9 °F 86.5 °F 69.1 °F 63% 29.94 in 10.0 mi WNW 13.8 mph - N/A   Clear
11:53 AM 84.9 °F 88.8 °F 69.1 °F 59% 29.94 in 10.0 mi WNW 9.2 mph 18.4 mph N/A   Clear
12:53 PM 87.1 °F 92.0 °F 70.0 °F 57% 29.94 in 10.0 mi WNW 10.4 mph - N/A   Clear
1:53 PM 88.0 °F 92.1 °F 69.1 °F 53% 29.94 in 10.0 mi West 11.5 mph - N/A   Clear
2:53 PM 89.1 °F 93.7 °F 69.1 °F 52% 29.92 in 10.0 mi West 10.4 mph 19.6 mph N/A   Clear
3:53 PM 89.1 °F 92.9 °F 68.0 °F 50% 29.90 in 10.0 mi Variable 6.9 mph - N/A   Clear
4:53 PM 89.1 °F 92.9 °F 68.0 °F 50% 29.90 in 10.0 mi West 10.4 mph - N/A   Partly Cloudy
5:53 PM 89.1 °F 92.9 °F 68.0 °F 50% 29.90 in 10.0 mi WNW 10.4 mph - N/A   Clear
6:53 PM 88.0 °F 90.7 °F 66.9 °F 49% 29.90 in 10.0 mi NW 8.1 mph - N/A   Clear
7:53 PM 84.9 °F 88.8 °F 69.1 °F 59% 29.91 in 10.0 mi NW 6.9 mph - N/A   Clear
8:53 PM 82.9 °F 87.5 °F 71.1 °F 67% 29.92 in 10.0 mi WNW 4.6 mph - N/A   Clear
9:53 PM 82.0 °F 86.3 °F 71.1 °F 69% 29.93 in 10.0 mi North 4.6 mph - N/A   Clear
10:53 PM 81.0 °F 84.9 °F 71.1 °F 72% 29.94 in 10.0 mi NNW 5.8 mph - N/A   Clear
11:53 PM 79.0 °F - 70.0 °F 74% 29.93 in 10.0 mi NNW 3.5 mph - N/A   Clear